カタログに戻る

ONEWEB-0535

運用中通信PO
NORAD 54147·PAYLOAD·🇬🇧 United Kingdom

打ち上げ Oct 22, 2022 から Satish Dhawan Space Centre

Loading…

次のパス (今後24時間)

TLE

最新Source: CelesTrak SupGP

元期: Sep 15, 2026, 00:07 UTC

1 54147C 22138AL  26258.00536294  .00003406  00000+0  85173-2 0  2585
2 54147  87.9120 287.0716 0001959 103.1580 291.8105 13.19724303    13

AllMySatでONEWEB-0535をリアルタイム追跡

Download on the App Store